Torna al catalogo

CZ-6A DEB

AttivoPO
NORAD 60844·DEBRIS·🇨🇳 China

Lanciato Aug 6, 2024 da Taiyuan Satellite Launch Center

Loading…

Prossimi Passaggi (prossime 24 ore)

TLE

AggiornatoSource: Space-Track

Epoca: Sep 14, 2026, 04:19 UTC

1 60844U 24140HX  26257.18010575  .00000319  00000-0  99169-4 0  9993
2 60844  88.6132 226.2873 0092141 303.3668  55.8737 14.36186754109424

Traccia CZ-6A DEB in tempo reale con AllMySat

Download on the App Store